TimeEST,TemperatureF,Dew PointF,Humidity,Sea Level PressureIn,VisibilityMPH,Wind Direction,Wind SpeedMPH,Gust SpeedMPH,PrecipitationIn,Events,Conditions,WindDirDegrees,DateUTC
12:53 AM,42.1,33.1,70,29.95,10.0,SW,19.6,31.1,N/A,,Overcast,220,2011-11-10 05:53:00
1:53 AM,43.0,32.0,65,29.96,10.0,SW,16.1,25.3,N/A,,Overcast,220,2011-11-10 06:53:00
2:53 AM,42.1,34.0,73,29.96,10.0,WSW,15.0,26.5,N/A,,Overcast,240,2011-11-10 07:53:00
3:53 AM,41.0,33.8,76,29.95,10.0,SW,16.1,25.3,N/A,,Scattered Clouds,230,2011-11-10 08:53:00
4:53 AM,41.0,33.8,76,29.96,10.0,SW,15.0,23.0,N/A,,Mostly Cloudy,230,2011-11-10 09:53:00
5:53 AM,39.9,33.1,77,29.96,10.0,SSW,11.5,-,N/A,,Partly Cloudy,210,2011-11-10 10:53:00
6:53 AM,39.0,33.1,79,29.97,10.0,SW,11.5,-,N/A,,Scattered Clouds,230,2011-11-10 11:53:00
7:00 AM,39.2,33.8,81,29.97,10.0,SW,11.5,-,N/A,,Mostly Cloudy,230,2011-11-10 12:00:00
7:23 AM,39.2,33.8,81,29.97,10.0,SW,11.5,-,N/A,,Scattered Clouds,220,2011-11-10 12:23:00
7:53 AM,39.9,33.1,77,29.99,10.0,SSW,11.5,-,N/A,,Clear,210,2011-11-10 12:53:00
8:53 AM,42.1,34.0,73,30.00,10.0,SW,13.8,-,N/A,,Clear,220,2011-11-10 13:53:00
9:53 AM,43.0,33.1,68,29.98,10.0,SW,15.0,-,N/A,,Clear,220,2011-11-10 14:53:00
10:53 AM,46.0,30.9,56,29.96,10.0,SSW,16.1,21.9,N/A,,Clear,210,2011-11-10 15:53:00
11:53 AM,48.9,30.9,50,29.93,10.0,SW,10.4,17.3,N/A,,Clear,220,2011-11-10 16:53:00
12:53 PM,48.2,30.2,50,29.89,9.0,WSW,15.0,-,N/A,,Mostly Cloudy,240,2011-11-10 17:53:00
1:53 PM,46.9,32.0,56,29.89,10.0,WSW,17.3,24.2,N/A,,Overcast,250,2011-11-10 18:53:00
2:53 PM,46.9,30.0,52,29.89,10.0,WSW,13.8,23.0,N/A,,Overcast,250,2011-11-10 19:53:00
3:53 PM,45.0,28.9,53,29.90,10.0,West,17.3,26.5,N/A,,Scattered Clouds,260,2011-11-10 20:53:00
4:53 PM,44.1,25.0,47,29.90,10.0,WSW,17.3,27.6,N/A,,Overcast,250,2011-11-10 21:53:00
5:53 PM,42.1,26.1,53,29.91,10.0,WSW,17.3,-,N/A,,Partly Cloudy,250,2011-11-10 22:53:00
6:53 PM,41.0,25.0,53,29.90,10.0,WSW,18.4,-,N/A,,Mostly Cloudy,240,2011-11-10 23:53:00
7:53 PM,39.9,24.1,53,29.89,10.0,WSW,20.7,32.2,N/A,,Mostly Cloudy,240,2011-11-11 00:53:00
8:53 PM,39.0,28.0,65,29.88,10.0,WSW,20.7,28.8,0.00,,Overcast,240,2011-11-11 01:53:00
9:53 PM,37.0,30.0,76,29.89,4.0,West,17.3,28.8,0.00,Snow,Light Snow,260,2011-11-11 02:53:00
10:24 PM,37.4,30.2,75,29.87,10.0,WSW,17.3,-,0.00,,Overcast,240,2011-11-11 03:24:00
10:53 PM,36.0,30.0,79,29.88,10.0,WSW,18.4,26.5,0.00,,Mostly Cloudy,240,2011-11-11 03:53:00
11:53 PM,35.1,28.9,78,29.87,10.0,SW,17.3,-,N/A,,Mostly Cloudy,230,2011-11-11 04:53:00